DELTA 1 DEB, 7048

Orbit data source: Space-Track

DELTA 1 DEB, 7048 is space debris in LEO originally from a launch on Tue, 06 Nov 1973 UTC launched from the Air Force Western Test Range (AFWTR). Debris objects in space refer to the collection of defunct objects orbiting the Earth. Examples of debris include non-operational satellites, rocket bodies, and fragments generated from explosions, collisions, or faulty payload assembly.

Loading next visibility...
Identifier
7048, 1973-086AQ
Orbit
LEO
Country
Flag of USUS
Related business
Manufacturer
Unknown
Mission
Spacecraft
Bus & Motor
Unknown
Mass
Unknown
Launch date (UTC)
1973-11-06 (53 years ago)
Launch vehicle
Unknown
Launch site
Air Force Western Test Range (AFWTR)
Object type
Payload
Rocket body
Debris
Shape & HBR
Unknown shape, 0.2 m
Radar Cross Section
Medium (>0.1 m² and <1 m²)

Expand to show TLE details & history
Last TLE update: 5 hours ago

TLE from 5 hours ago
0 DELTA 1 DEB
1  7048U 73086AQ  26254.75617808 -.00000011  00000-0  36912-3 0  9991
2  7048 101.6014  74.9163 0486465 214.5120 157.0373 11.50711403213579
Epoch: 2026-09-11T18:08Z
TLE epoch observation values (Epoch: 2026-09-11T18:08:53.786Z)
Latitude
13.29584°
Longitude
169.14885°
Altitude
2,285.148 km
Speed
6.63 km/s
True Right ascension
04h 48m 35s
True Declination
13° 13' 57"
Sunlit
Object was in daylight at epoch
Visualization orbit readout
Latitude
Unknown
Longitude
Unknown
Altitude
Unknown
Speed
Unknown
Apparent Right ascension
Unknown
Apparent Declination
Unknown
Sunlit
N/A
Visualization observer readout
Local Sidereal Time
15:31:23
Azimuth
Unknown
Elevation
Unknown
Doppler factor
Unknown
Orbital elements
Apogee altitude
2,310.083 km
Perigee altitude
1,503.994 km
Semi-major axis
8,285.176 km
Eccentricity
0.04865
Inclination
101.6014°
RAAN
74.9163°
Arg. of periapsis
214.512°
True anomaly
159.09611°
Mean anomaly
157.0373°
Eccentric anomaly
158.0779°
Mean motion
2.878 °/min
Orbital period
125.09 mins
BSTAR
0.00036912
Loading maneuver chart data...
Computing Atmospheric mass density...
Loading historical data...
Loading historical data...
Loading historical data...
Loading historical data...
Loading historical data...
Loading historical data...
Loading historical data...

Documentation

Showing up to 5 results
|